Whidbey Island, WA

12:22 AM PDT on July 27, 2017 (GMT -0700)
Whidbey Island Naval Air Station

Weather History for KNUW - January, 2014

Change the Weather History Date:

Saturday, January 11, 2014

  Actual Average Record
Temperature  
Mean Temperature 50 °F -  
Max Temperature 54 °F 44 °F 54 °F (2014)
Min Temperature 46 °F 34 °F 19 °F (1998)
Degree Days  
Heating Degree Days 15    
Moisture  
Dew Point 42 °F    
Average Humidity 75    
Maximum Humidity 83    
Minimum Humidity 61    
Precipitation  
Precipitation 0.53 in - - ()
Sea Level Pressure  
Sea Level Pressure 29.41 in    
Wind  
Wind Speed 24 mph (SSW)    
Max Wind Speed 38 mph    
Max Gust Speed 51 mph    
Visibility 9 miles    
Events Rain    
Averages and records for this station are not official NWS values.
T = Trace of Precipitation, MM = Missing Value Source: NWS Daily Summary

Daily Weather History Graph

Daily Weather History Graph

Search for Another Location

Airport or City:

Trip Planner

Search our weather history database for the weather conditions in past years. The results will help you decide how hot, cold, wet, or windy it might be!

Date:

Astronomy

Jan. 11, 2014 Rise Set
Actual Time 7:59 AM PST 4:38 PM PST
Civil Twilight 7:23 AM PST 5:14 PM PST
Nautical Twilight 6:44 AM PST 5:53 PM PST
Astronomical Twilight 6:06 AM PST 6:31 PM PST
Moon 1:29 PM PST (1/11) 4:04 AM PST (1/11)
Length of Visible Light 9h 50m
Length of Day
8h 39m
Waxing Gibbous, 84% of the Moon is Illuminated
Jan 11
Waxing Gibbous
Jan 15
Full
Jan 23
Last Quarter
Jan 30
New
Feb 6
First Quarter

Hourly Weather History & Observations

Time (PST) Temp. Dew Point Humidity Pressure Visibility Wind Dir Wind Speed Gust Speed Precip Events Conditions
12:56 AM 53.1 °F 46.9 °F 80% 29.40 in 10.0 mi SSE 29.9 mph 47.2 mph 0.01 in Rain Light Rain
1:56 AM 53.1 °F 46.9 °F 80% 29.37 in 6.0 mi SSE 34.5 mph 50.6 mph 0.02 in Rain Light Rain
2:56 AM 54.0 °F 48.0 °F 80% 29.35 in 6.0 mi SSE 26.5 mph 36.8 mph 0.04 in Rain Light Rain
3:56 AM 54.0 °F 48.0 °F 80% 29.37 in 4.0 mi South 21.9 mph 36.8 mph 0.06 in Rain Rain
4:10 AM 51.1 °F 45.0 °F 80% 29.37 in 4.0 mi WSW 10.4 mph - 0.08 in Rain Light Rain
4:56 AM 48.9 °F 43.0 °F 80% 29.38 in 6.0 mi West 29.9 mph 43.7 mph 0.12 in Rain Light Rain
5:56 AM 50.0 °F 41.0 °F 71% 29.37 in 10.0 mi SW 10.4 mph - 0.01 in   Mostly Cloudy
6:56 AM 48.0 °F 43.0 °F 83% 29.41 in 10.0 mi SSE 13.8 mph 24.2 mph N/A   Mostly Cloudy
7:56 AM 48.0 °F 42.1 °F 80% 29.43 in 10.0 mi SSE 16.1 mph 26.5 mph N/A   Mostly Cloudy
8:56 AM 48.9 °F 42.1 °F 77% 29.40 in 10.0 mi SSE 16.1 mph 26.5 mph N/A   Mostly Cloudy
9:56 AM 50.0 °F 41.0 °F 71% 29.38 in 10.0 mi SSE 18.4 mph 32.2 mph N/A   Overcast
10:36 AM 50.0 °F 41.0 °F 71% 29.34 in 10.0 mi SSE 29.9 mph 46.0 mph 0.00 in Rain Light Rain
10:56 AM 50.0 °F 41.0 °F 71% 29.34 in 10.0 mi SSE 28.8 mph 42.6 mph 0.00 in   Overcast
11:26 AM 48.9 °F 41.0 °F 74% 29.34 in 6.0 mi South 26.5 mph 43.7 mph 0.00 in Rain Light Rain
11:56 AM 48.0 °F 42.1 °F 80% 29.33 in 5.0 mi SSE 16.1 mph - 0.10 in Rain Rain
12:21 PM 50.0 °F 43.0 °F 77% 29.28 in 10.0 mi SSE 19.6 mph 25.3 mph 0.01 in   Mostly Cloudy
12:33 PM 50.0 °F 42.1 °F 74% 29.28 in 10.0 mi South 28.8 mph 39.1 mph 0.01 in Rain Light Rain
12:56 PM 50.0 °F 41.0 °F 71% 29.29 in 10.0 mi SSE 25.3 mph 38.0 mph 0.01 in Rain Light Rain
1:56 PM 50.0 °F 41.0 °F 71% 29.26 in 10.0 mi South 21.9 mph 39.1 mph 0.00 in Rain Light Rain
2:38 PM 50.0 °F 41.0 °F 71% 29.25 in 10.0 mi South 20.7 mph 32.2 mph 0.00 in   Mostly Cloudy
2:56 PM 50.0 °F 41.0 °F 71% 29.30 in 10.0 mi South 16.1 mph - 0.00 in   Mostly Cloudy
3:06 PM 48.9 °F 41.0 °F 74% 29.29 in 5.0 mi South 19.6 mph 28.8 mph 0.03 in Rain Rain
3:56 PM 48.0 °F 41.0 °F 77% 29.33 in 10.0 mi SSE 16.1 mph 27.6 mph 0.09 in Rain Light Rain
4:37 PM 46.9 °F 41.0 °F 80% 29.33 in 10.0 mi South 12.7 mph - 0.01 in   Overcast
4:56 PM 46.9 °F 41.0 °F 80% 29.35 in 10.0 mi SSE 13.8 mph - 0.01 in   Overcast
5:04 PM 46.9 °F 41.0 °F 80% 29.35 in 10.0 mi South 13.8 mph - 0.00 in Rain Light Rain
5:56 PM 46.9 °F 42.1 °F 83% 29.40 in 7.0 mi SSW 13.8 mph 19.6 mph 0.05 in Rain Light Rain
6:56 PM 48.9 °F 41.0 °F 74% 29.44 in 10.0 mi WSW 32.2 mph 46.0 mph 0.01 in Rain Light Rain
7:56 PM 48.9 °F 41.0 °F 74% 29.51 in 10.0 mi West 29.9 mph 42.6 mph 0.00 in Rain Light Rain
8:39 PM 48.0 °F 41.0 °F 77% 29.55 in 10.0 mi West 31.1 mph 46.0 mph 0.00 in   Mostly Cloudy
8:56 PM 48.9 °F 39.9 °F 71% 29.59 in 10.0 mi West 38.0 mph 49.5 mph 0.00 in   Mostly Cloudy
9:25 PM 48.9 °F 39.9 °F 71% 29.60 in 9.0 mi West 35.7 mph 48.3 mph 0.00 in Rain Light Rain
9:56 PM 48.9 °F 39.9 °F 71% 29.65 in 10.0 mi West 36.8 mph 47.2 mph 0.00 in Rain Light Rain
10:56 PM 48.9 °F 39.0 °F 69% 29.73 in 10.0 mi West 35.7 mph 49.5 mph 0.00 in   Mostly Cloudy
11:29 PM 48.0 °F 37.0 °F 66% 29.74 in 10.0 mi West 35.7 mph 48.3 mph 0.00 in Rain Light Rain
11:56 PM 48.9 °F 36.0 °F 61% 29.78 in 10.0 mi West 33.4 mph 50.6 mph 0.00 in Rain Light Rain